| time (UTC) | temp F | wind direction | speed MPH | gust MPH | rain 1hr in | rain 24hr in | rain mn in | humidity % | barometer mb |
| 20260504213509 | 73 | 295 | 23.0 | 27.0 | 0.00 | 0.00 | 0.00 | 41 | 995.8 |
| 20260504213006 | 73 | 315 | 17.0 | 34.0 | 0.00 | 0.00 | 0.00 | 40 | 995.6 |
| 20260504212502 | 73 | 308 | 20.0 | 32.0 | 0.00 | 0.00 | 0.00 | 39 | 995.8 |
| 20260504211959 | 74 | 297 | 15.0 | 23.0 | 0.00 | 0.00 | 0.00 | 40 | 995.8 |
| 20260504211456 | 74 | 264 | 14.0 | 25.0 | 0.00 | 0.00 | 0.00 | 42 | 995.7 |
| 20260504210953 | 74 | 312 | 8.0 | 24.0 | 0.00 | 0.00 | 0.00 | 43 | 995.9 |
| 20260504210450 | 75 | 320 | 10.0 | 23.0 | 0.00 | 0.00 | 0.00 | 42 | 995.7 |
| 20260504205947 | 74 | 270 | 9.0 | 19.0 | 0.00 | 0.00 | 0.00 | 43 | 995.6 |
| 20260504205444 | 74 | 318 | 17.0 | 25.0 | 0.00 | 0.00 | 0.00 | 43 | 995.8 |
| 20260504204943 | 74 | 289 | 11.0 | 26.0 | 0.00 | 0.00 | 0.00 | 43 | 995.7 |
| 20260504204441 | 74 | 305 | 11.0 | 20.0 | 0.00 | 0.00 | 0.00 | 42 | 995.8 |
| 20260504203939 | 74 | 270 | 13.0 | 21.0 | 0.00 | 0.00 | 0.00 | 43 | 995.7 |
| 20260504203437 | 74 | 282 | 8.0 | 18.0 | 0.00 | 0.00 | 0.00 | 41 | 995.7 |
| 20260504202933 | 74 | 330 | 8.0 | 20.0 | 0.00 | 0.00 | 0.00 | 42 | 995.6 |
| 20260504202429 | 74 | 285 | 10.0 | 20.0 | 0.00 | 0.00 | 0.00 | 41 | 995.8 |
| 20260504201926 | 75 | 292 | 7.0 | 23.0 | 0.00 | 0.00 | 0.00 | 41 | 995.9 |
| 20260504201424 | 74 | 258 | 13.0 | 26.0 | 0.00 | 0.00 | 0.00 | 41 | 995.9 |
| 20260504200921 | 74 | 268 | 4.0 | 22.0 | 0.00 | 0.00 | 0.00 | 41 | 995.9 |
| 20260504200417 | 75 | 275 | 11.0 | 21.0 | 0.00 | 0.00 | 0.00 | 42 | 995.8 |
| 20260504195914 | 75 | 250 | 15.0 | 24.0 | 0.00 | 0.00 | 0.00 | 44 | 995.7 |
| 20260504195410 | 73 | 247 | 20.0 | 26.0 | 0.00 | 0.00 | 0.00 | 42 | 995.9 |
| 20260504194907 | 73 | 272 | 23.0 | 27.0 | 0.00 | 0.00 | 0.00 | 42 | 995.9 |
| 20260504194403 | 73 | 248 | 11.0 | 23.0 | 0.00 | 0.00 | 0.00 | 45 | 996.1 |
| 20260504193859 | 74 | 258 | 17.0 | 24.0 | 0.00 | 0.00 | 0.00 | 42 | 995.9 |
| 20260504193356 | 74 | 251 | 9.0 | 28.0 | 0.00 | 0.00 | 0.00 | 42 | 995.7 |
| 20260504192855 | 74 | 252 | 17.0 | 22.0 | 0.00 | 0.00 | 0.00 | 42 | 995.9 |
| 20260504192352 | 76 | 240 | 21.0 | 26.0 | 0.00 | 0.00 | 0.00 | 40 | 995.9 |
| 20260504191850 | 76 | 246 | 15.0 | 33.0 | 0.00 | 0.00 | 0.00 | 40 | 996.2 |
| 20260504191348 | 74 | 295 | 8.0 | 33.0 | 0.00 | 0.00 | 0.00 | 41 | 995.9 |
| 20260504190843 | 73 | 268 | 7.0 | 25.0 | 0.00 | 0.00 | 0.00 | 44 | 995.9 |
| 20260504190339 | 74 | 240 | 26.0 | 28.0 | 0.00 | 0.00 | 0.00 | 42 | 996.0 |
| 20260504185836 | 74 | 232 | 10.0 | 19.0 | 0.00 | 0.00 | 0.00 | 43 | 996.3 |
| 20260504185333 | 75 | 254 | 9.0 | 22.0 | 0.00 | 0.00 | 0.00 | 42 | 995.9 |
| 20260504184829 | 74 | 251 | 19.0 | 26.0 | 0.00 | 0.00 | 0.00 | 40 | 996.0 |
| 20260504184325 | 74 | 251 | 17.0 | 32.0 | 0.00 | 0.00 | 0.00 | 42 | 995.8 |
| 20260504183821 | 75 | 228 | 17.0 | 28.0 | 0.00 | 0.00 | 0.00 | 40 | 995.8 |
| 20260504183319 | 74 | 241 | 18.0 | 30.0 | 0.00 | 0.00 | 0.00 | 40 | 996.0 |
| 20260504182816 | 75 | 259 | 12.0 | 25.0 | 0.00 | 0.00 | 0.00 | 40 | 996.1 |
| 20260504182314 | 75 | 244 | 25.0 | 32.0 | 0.00 | 0.00 | 0.00 | 39 | 995.8 |
| 20260504181811 | 75 | 304 | 14.0 | 32.0 | 0.00 | 0.00 | 0.00 | 39 | 996.1 |
| 20260504181308 | 74 | 249 | 25.0 | 27.0 | 0.00 | 0.00 | 0.00 | 41 | 996.1 |
| 20260504180807 | 74 | 250 | 18.0 | 32.0 | 0.00 | 0.00 | 0.00 | 41 | 996.1 |
| 20260504180305 | 74 | 235 | 15.0 | 28.0 | 0.00 | 0.00 | 0.00 | 41 | 996.1 |
| 20260504175803 | 73 | 254 | 14.0 | 30.0 | 0.00 | 0.00 | 0.00 | 41 | 996.0 |
| 20260504175259 | 73 | 240 | 26.0 | 32.0 | 0.00 | 0.00 | 0.00 | 40 | 996.3 |
| 20260504174757 | 73 | 246 | 20.0 | 28.0 | 0.00 | 0.00 | 0.00 | 42 | 996.3 |
| 20260504174255 | 72 | 250 | 28.0 | 32.0 | 0.00 | 0.00 | 0.00 | 42 | 996.4 |
| 20260504173751 | 73 | 257 | 28.0 | 32.0 | 0.00 | 0.00 | 0.00 | 42 | 996.2 |
| 20260504173248 | 73 | 233 | 20.0 | 31.0 | 0.00 | 0.00 | 0.00 | 42 | 996.6 |
| 20260504172745 | 72 | 236 | 17.0 | 35.0 | 0.00 | 0.00 | 0.00 | 41 | 996.4 |
| 20260504172241 | 73 | 242 | 33.0 | 34.0 | 0.00 | 0.00 | 0.00 | 41 | 996.4 |
| 20260504171737 | 72 | 237 | 29.0 | 34.0 | 0.00 | 0.00 | 0.00 | 41 | 996.5 |
| 20260504171235 | 72 | 247 | 28.0 | 38.0 | 0.00 | 0.00 | 0.00 | 39 | 996.5 |
| 20260504170732 | 72 | 249 | 23.0 | 35.0 | 0.00 | 0.00 | 0.00 | 39 | 996.7 |
| 20260504170229 | 72 | 231 | 33.0 | 36.0 | 0.00 | 0.00 | 0.00 | 42 | 996.6 |
| 20260504160147 | 69 | 234 | 25.0 | 34.0 | 0.00 | 0.00 | 0.00 | 42 | 997.3 |
| 20260504151115 | 67 | 237 | 24.0 | 34.0 | 0.00 | 0.00 | 0.00 | 45 | 998.0 |
| 20260504150612 | 67 | 226 | 19.0 | 34.0 | 0.00 | 0.00 | 0.00 | 46 | 997.6 |
| 20260504150109 | 66 | 242 | 26.0 | 36.0 | 0.00 | 0.00 | 0.00 | 46 | 997.9 |
| 20260504141038 | 64 | 221 | 21.0 | 28.0 | 0.00 | 0.00 | 0.00 | 46 | 998.9 |
| 20260504140534 | 64 | 235 | 18.0 | 26.0 | 0.00 | 0.00 | 0.00 | 48 | 998.7 |
| 20260504130459 | 60 | 245 | 17.0 | 24.0 | 0.00 | 0.00 | 0.00 | 53 | 1000.0 |
| 20260504110346 | 51 | 194 | 6.0 | 9.0 | 0.00 | 0.00 | 0.00 | 68 | 1001.0 |
| 20260504100303 | 52 | 216 | 5.0 | 8.0 | 0.00 | 0.00 | 0.00 | 65 | 1001.7 |
| 20260504081657 | 47 | 194 | 4.0 | 4.0 | 0.00 | 0.00 | 0.00 | 75 | 1003.0 |
| 20260504081153 | 48 | 191 | 4.0 | 6.0 | 0.00 | 0.00 | 0.00 | 74 | 1003.0 |
| 20260504080649 | 49 | 170 | 4.0 | 5.0 | 0.00 | 0.00 | 0.00 | 73 | 1003.1 |
| 20260504080146 | 49 | 174 | 5.0 | 5.0 | 0.00 | 0.00 | 0.00 | 73 | 1003.0 |
| 20260504070114 | 55 | 203 | 1.0 | 3.0 | 0.00 | 0.00 | 0.00 | 58 | 1003.7 |
| 20260504050502 | 56 | 240 | 5.0 | 5.0 | 0.00 | 0.00 | 0.00 | 67 | 1004.5 |
| 20260504045959 | 55 | 255 | 5.0 | 6.0 | 0.00 | 0.00 | 0.00 | 67 | 1004.4 |
| 20260504045455 | 55 | 235 | 5.0 | 6.0 | 0.00 | 0.00 | 0.00 | 68 | 1004.5 |
| 20260504044951 | 56 | 267 | 4.0 | 7.0 | 0.00 | 0.00 | 0.00 | 65 | 1004.7 |
| 20260504044449 | 56 | 260 | 4.0 | 8.0 | 0.00 | 0.00 | 0.00 | 66 | 1004.6 |
| 20260504043946 | 55 | 277 | 4.0 | 5.0 | 0.00 | 0.00 | 0.00 | 67 | 1004.3 |
| 20260504043443 | 55 | 262 | 5.0 | 8.0 | 0.00 | 0.00 | 0.00 | 66 | 1004.4 |
| 20260504042941 | 56 | 247 | 5.0 | 6.0 | 0.00 | 0.00 | 0.00 | 65 | 1004.4 |
| 20260504042437 | 57 | 264 | 5.0 | 5.0 | 0.00 | 0.00 | 0.00 | 64 | 1004.1 |
| 20260504041934 | 56 | 273 | 4.0 | 5.0 | 0.00 | 0.00 | 0.00 | 65 | 1004.2 |
| 20260504041430 | 56 | 249 | 3.0 | 5.0 | 0.00 | 0.00 | 0.00 | 65 | 1004.3 |
| 20260504040926 | 56 | 260 | 5.0 | 5.0 | 0.00 | 0.00 | 0.00 | 65 | 1004.3 |
| 20260504040424 | 57 | 263 | 3.0 | 5.0 | 0.00 | 0.00 | 0.00 | 63 | 1004.3 |
| 20260504035920 | 57 | 247 | 4.0 | 6.0 | 0.00 | 0.00 | 0.00 | 63 | 1004.5 |
| 20260504035417 | 56 | 248 | 3.0 | 5.0 | 0.00 | 0.00 | 0.00 | 63 | 1004.3 |
| 20260504034914 | 57 | 244 | 5.0 | 7.0 | 0.00 | 0.00 | 0.00 | 60 | 1004.4 |
| 20260504034411 | 57 | 256 | 5.0 | 6.0 | 0.00 | 0.00 | 0.00 | 61 | 1004.5 |
| 20260504033908 | 57 | 286 | 0.0 | 6.0 | 0.00 | 0.00 | 0.00 | 62 | 1004.6 |
| 20260504033406 | 57 | 251 | 3.0 | 6.0 | 0.00 | 0.00 | 0.00 | 63 | 1004.6 |
| 20260504032903 | 57 | 249 | 5.0 | 7.0 | 0.00 | 0.00 | 0.00 | 62 | 1004.6 |
| 20260504032400 | 58 | 251 | 3.0 | 7.0 | 0.00 | 0.00 | 0.00 | 61 | 1004.8 |
| 20260504031856 | 58 | 243 | 3.0 | 5.0 | 0.00 | 0.00 | 0.00 | 59 | 1004.6 |
| 20260504031353 | 59 | 241 | 4.0 | 5.0 | 0.00 | 0.00 | 0.00 | 56 | 1004.6 |
| 20260504030849 | 59 | 242 | 3.0 | 5.0 | 0.00 | 0.00 | 0.00 | 55 | 1004.7 |
| 20260504030347 | 60 | 240 | 3.0 | 5.0 | 0.00 | 0.00 | 0.00 | 53 | 1004.9 |
| 20260504025843 | 60 | 249 | 4.0 | 5.0 | 0.00 | 0.00 | 0.00 | 53 | 1004.5 |
| 20260504025340 | 60 | 310 | 2.0 | 7.0 | 0.00 | 0.00 | 0.00 | 51 | 1004.5 |
| 20260504024837 | 61 | 305 | 5.0 | 7.0 | 0.00 | 0.00 | 0.00 | 51 | 1004.7 |
| 20260504024333 | 61 | 280 | 6.0 | 6.0 | 0.00 | 0.00 | 0.00 | 50 | 1004.6 |
| 20260504023830 | 60 | 275 | 2.0 | 4.0 | 0.00 | 0.00 | 0.00 | 52 | 1004.5 |
| 20260504023327 | 61 | 264 | 3.0 | 5.0 | 0.00 | 0.00 | 0.00 | 51 | 1004.7 |
| 20260504022822 | 61 | 290 | 3.0 | 8.0 | 0.00 | 0.00 | 0.00 | 50 | 1004.7 |
| 20260504022320 | 61 | 292 | 3.0 | 5.0 | 0.00 | 0.00 | 0.00 | 51 | 1004.6 |
| 20260504021816 | 60 | 266 | 3.0 | 6.0 | 0.00 | 0.00 | 0.00 | 52 | 1004.6 |
| 20260504021314 | 61 | 270 | 1.0 | 5.0 | 0.00 | 0.00 | 0.00 | 51 | 1004.4 |
| 20260504020810 | 62 | 312 | 6.0 | 8.0 | 0.00 | 0.00 | 0.00 | 50 | 1004.4 |
| 20260504020307 | 62 | 294 | 5.0 | 7.0 | 0.00 | 0.00 | 0.00 | 50 | 1004.4 |
| 20260504015803 | 62 | 289 | 5.0 | 7.0 | 0.00 | 0.00 | 0.00 | 49 | 1004.4 |
| 20260504015259 | 62 | 340 | 5.0 | 7.0 | 0.00 | 0.00 | 0.00 | 51 | 1004.3 |
| 20260504014755 | 62 | 267 | 3.0 | 7.0 | 0.00 | 0.00 | 0.00 | 50 | 1004.2 |
| 20260504014252 | 62 | 290 | 6.0 | 7.0 | 0.00 | 0.00 | 0.00 | 50 | 1004.2 |
| 20260504013750 | 62 | 307 | 4.0 | 7.0 | 0.00 | 0.00 | 0.00 | 50 | 1004.1 |
| 20260504013247 | 62 | 315 | 5.0 | 6.0 | 0.00 | 0.00 | 0.00 | 50 | 1004.3 |
| 20260504012743 | 62 | 296 | 5.0 | 7.0 | 0.00 | 0.00 | 0.00 | 50 | 1004.0 |
| 20260504012242 | 62 | 296 | 5.0 | 6.0 | 0.00 | 0.00 | 0.00 | 50 | 1004.2 |
| 20260504011738 | 62 | 304 | 4.0 | 5.0 | 0.00 | 0.00 | 0.00 | 51 | 1004.0 |
| 20260504011235 | 62 | 324 | 2.0 | 3.0 | 0.00 | 0.00 | 0.00 | 55 | 1004.1 |
| 20260504010731 | 61 | 309 | 2.0 | 5.0 | 0.00 | 0.00 | 0.00 | 58 | 1004.1 |
| 20260504010226 | 61 | 276 | 2.0 | 4.0 | 0.00 | 0.00 | 0.00 | 60 | 1004.1 |
| 20260504005724 | 62 | 285 | 2.0 | 5.0 | 0.00 | 0.00 | 0.00 | 60 | 1003.9 |
| 20260504005221 | 62 | 246 | 5.0 | 7.0 | 0.00 | 0.00 | 0.00 | 60 | 1003.9 |
| 20260504004718 | 62 | 248 | 4.0 | 6.0 | 0.00 | 0.00 | 0.00 | 61 | 1003.7 |
| 20260504004215 | 62 | 260 | 3.0 | 6.0 | 0.00 | 0.00 | 0.00 | 61 | 1003.9 |
| 20260504003712 | 63 | 251 | 5.0 | 8.0 | 0.00 | 0.00 | 0.00 | 60 | 1003.8 |
| 20260504003209 | 64 | 243 | 5.0 | 8.0 | 0.00 | 0.00 | 0.00 | 58 | 1003.9 |
| 20260504002706 | 64 | 249 | 7.0 | 9.0 | 0.00 | 0.00 | 0.00 | 57 | 1003.8 |
| 20260504002203 | 64 | 242 | 8.0 | 10.0 | 0.00 | 0.00 | 0.00 | 57 | 1003.8 |
| 20260504001701 | 64 | 246 | 8.0 | 12.0 | 0.00 | 0.00 | 0.00 | 56 | 1003.9 |
| 20260504001157 | 65 | 262 | 8.0 | 12.0 | 0.00 | 0.00 | 0.00 | 54 | 1003.7 |
| 20260504000654 | 66 | 250 | 10.0 | 13.0 | 0.00 | 0.00 | 0.00 | 53 | 1003.5 |
| 20260504000151 | 67 | 253 | 4.0 | 16.0 | 0.00 | 0.00 | 0.00 | 50 | 1003.5 |
| 20260503235649 | 67 | 235 | 11.0 | 13.0 | 0.00 | 0.00 | 0.00 | 50 | 1003.6 |
| 20260503235145 | 67 | 245 | 12.0 | 15.0 | 0.00 | 0.00 | 0.00 | 50 | 1003.5 |
| 20260503234644 | 67 | 241 | 16.0 | 18.0 | 0.00 | 0.00 | 0.00 | 48 | 1003.4 |
| 20260503234142 | 67 | 232 | 10.0 | 18.0 | 0.00 | 0.00 | 0.00 | 49 | 1003.4 |
| 20260503233638 | 66 | 229 | 13.0 | 18.0 | 0.00 | 0.00 | 0.00 | 49 | 1003.4 |
| 20260503233134 | 67 | 246 | 15.0 | 15.0 | 0.00 | 0.00 | 0.00 | 49 | 1003.5 |
| 20260503232631 | 67 | 242 | 11.0 | 16.0 | 0.00 | 0.00 | 0.00 | 50 | 1003.4 |
| 20260503232128 | 67 | 235 | 12.0 | 17.0 | 0.00 | 0.00 | 0.00 | 47 | 1003.6 |
| 20260503231626 | 67 | 232 | 9.0 | 20.0 | 0.00 | 0.00 | 0.00 | 49 | 1003.5 |
| 20260503231122 | 67 | 231 | 16.0 | 22.0 | 0.00 | 0.00 | 0.00 | 48 | 1003.3 |
| 20260503230619 | 67 | 231 | 20.0 | 26.0 | 0.00 | 0.00 | 0.00 | 47 | 1003.4 |
| 20260503230117 | 67 | 242 | 15.0 | 23.0 | 0.00 | 0.00 | 0.00 | 47 | 1003.5 |
| 20260503225614 | 68 | 225 | 11.0 | 17.0 | 0.00 | 0.00 | 0.00 | 48 | 1003.6 |
| 20260503225113 | 67 | 232 | 18.0 | 24.0 | 0.00 | 0.00 | 0.00 | 46 | 1003.6 |
| 20260503224611 | 66 | 226 | 17.0 | 25.0 | 0.00 | 0.00 | 0.00 | 47 | 1003.6 |
| 20260503224109 | 66 | 230 | 16.0 | 25.0 | 0.00 | 0.00 | 0.00 | 47 | 1003.7 |
| 20260503223607 | 67 | 223 | 11.0 | 20.0 | 0.00 | 0.00 | 0.00 | 48 | 1004.0 |
| 20260503223102 | 67 | 233 | 21.0 | 21.0 | 0.00 | 0.00 | 0.00 | 46 | 1003.8 |
| 20260503222600 | 68 | 232 | 20.0 | 20.0 | 0.00 | 0.00 | 0.00 | 47 | 1003.8 |
| 20260503222058 | 67 | 239 | 14.0 | 23.0 | 0.00 | 0.00 | 0.00 | 46 | 1003.7 |
| 20260503221556 | 67 | 229 | 24.0 | 26.0 | 0.00 | 0.00 | 0.00 | 46 | 1003.9 |
| 20260503221053 | 67 | 245 | 14.0 | 27.0 | 0.00 | 0.00 | 0.00 | 47 | 1003.8 |
| 20260503220549 | 67 | 233 | 16.0 | 21.0 | 0.00 | 0.00 | 0.00 | 48 | 1003.9 |
| 20260503220046 | 67 | 235 | 15.0 | 24.0 | 0.00 | 0.00 | 0.00 | 47 | 1004.0 |
| 20260503215543 | 68 | 226 | 16.0 | 20.0 | 0.00 | 0.00 | 0.00 | 47 | 1003.9 |
| 20260503215040 | 67 | 227 | 15.0 | 20.0 | 0.00 | 0.00 | 0.00 | 48 | 1004.0 |
| 20260503214539 | 68 | 232 | 18.0 | 21.0 | 0.00 | 0.00 | 0.00 | 48 | 1004.3 |
| 20260503214035 | 67 | 232 | 20.0 | 25.0 | 0.00 | 0.00 | 0.00 | 47 | 1004.1 |